Lubbock, TX

2:42 AM CDT on October 19, 2017 (GMT -0500)
Lubbock International

Weather History for KLBB - December, 2012

Change the Weather History Date:

Monday, December 10, 2012

  Actual Average Record
Temperature  
Mean Temperature 26 °F 41 °F  
Max Temperature 41 °F 55 °F 81 °F (1933)
Min Temperature 11 °F 28 °F 5 °F (1917)
Degree Days  
Heating Degree Days 39 24  
Month to date heating degree days 155 228  
Since 1 July heating degree days 676 870  
Cooling Degree Days 0 0  
Month to date cooling degree days 0 0  
Year to date cooling degree days 2322 1804  
Moisture  
Dew Point 14 °F    
Average Humidity 59    
Maximum Humidity 88    
Minimum Humidity 30    
Precipitation  
Precipitation 0.02 in 0.03 in 0.34 in (1964)
Month to date precipitation 0.02 0.25  
Year to date precipitation 10.77 18.61  
Snow  
Snow 0.20 in 0.10 in 2.70 in (1960)
Month to date snowfall 0.2 0.6  
Since 1 July snowfall 0.2 1.5  
Snow Depth 0.00 in    
Sea Level Pressure  
Sea Level Pressure 30.13 in    
Wind  
Wind Speed 8 mph (WNW)    
Max Wind Speed 21 mph    
Max Gust Speed 28 mph    
Visibility 9 miles    
Events Snow    
T = Trace of Precipitation, MM = Missing Value Source: NWS Daily Summary

Daily Weather History Graph

Daily Weather History Graph

Search for Another Location

Airport or City:

Trip Planner

Search our weather history database for the weather conditions in past years. The results will help you decide how hot, cold, wet, or windy it might be!

Date:

Astronomy

Dec. 10, 2012 Rise Set
Actual Time 7:41 AM CST 5:39 PM CST
Civil Twilight 7:13 AM CST 6:06 PM CST
Nautical Twilight 6:42 AM CST 6:37 PM CST
Astronomical Twilight 6:12 AM CST 7:08 PM CST
Moon 4:32 AM CST (12/10) 3:25 PM CST (12/10)
Length of Visible Light 10h 53m
Length of Day
9h 57m
Waning Crescent, 10% of the Moon is Illuminated
Dec 10
Waning Crescent
Dec 13
New
Dec 19
First Quarter
Dec 28
Full
Jan 4
Last Quarter

Hourly Weather History & Observations

Time (CST) Temp. Windchill Dew Point Humidity Pressure Visibility Wind Dir Wind Speed Gust Speed Precip Events Conditions
12:02 AM 24.8 °F 11.5 °F 21.2 °F 86% 30.21 in 0.8 mi North 17.3 mph 26.5 mph N/A Snow Light Snow
12:19 AM 24.8 °F 13.4 °F 21.2 °F 86% 30.21 in 1.0 mi North 12.7 mph 24.2 mph 0.02 in Snow Light Snow
12:38 AM 23.0 °F 10.1 °F 21.2 °F 93% 30.20 in 2.5 mi North 15.0 mph - 0.02 in Snow Light Snow
12:53 AM 23.0 °F 12.4 °F 19.9 °F 88% 30.21 in 10.0 mi North 10.4 mph - 0.02 in   Mostly Cloudy
1:53 AM 21.9 °F 10.4 °F 17.1 °F 82% 30.19 in 10.0 mi NNW 11.5 mph - N/A   Scattered Clouds
2:53 AM 19.9 °F 9.3 °F 15.1 °F 81% 30.20 in 10.0 mi NW 9.2 mph - N/A   Partly Cloudy
3:53 AM 17.1 °F 4.3 °F 10.9 °F 77% 30.19 in 10.0 mi NNW 11.5 mph - N/A   Partly Cloudy
4:53 AM 15.1 °F 3.3 °F 10.0 °F 80% 30.19 in 10.0 mi NW 9.2 mph - N/A   Partly Cloudy
5:53 AM 15.8 °F 3.4 °F 10.4 °F 79% 30.15 in 10.0 mi NW 10.4 mph - N/A   Partly Cloudy
6:53 AM 12.0 °F 4.1 °F 8.1 °F 84% 30.23 in 10.0 mi SW 4.6 mph - N/A   Partly Cloudy
7:53 AM 12.9 °F -0.2 °F 8.1 °F 81% 30.24 in 10.0 mi NW 10.4 mph - N/A   Clear
8:53 AM 17.1 °F 10.0 °F 10.0 °F 74% 30.24 in 10.0 mi NW 4.6 mph - N/A   Clear
9:53 AM 21.9 °F 11.7 °F 10.9 °F 63% 30.23 in 10.0 mi NW 9.2 mph - N/A   Clear
10:53 AM 27.0 °F 18.7 °F 14.0 °F 58% 30.20 in 10.0 mi WNW 8.1 mph - N/A   Clear
11:53 AM 30.9 °F 25.2 °F 15.1 °F 52% 30.18 in 10.0 mi NW 5.8 mph - N/A   Clear
12:53 PM 35.1 °F 29.3 °F 12.9 °F 40% 30.12 in 10.0 mi West 6.9 mph - N/A   Clear
1:53 PM 37.0 °F 31.0 °F 14.0 °F 39% 30.07 in 10.0 mi West 8.1 mph 17.3 mph N/A   Clear
2:53 PM 39.0 °F 32.8 °F 14.0 °F 36% 30.05 in 10.0 mi West 9.2 mph - N/A   Clear
3:53 PM 41.0 °F 33.9 °F 12.9 °F 32% 30.01 in 10.0 mi West 12.7 mph - N/A   Clear
4:53 PM 39.9 °F 35.8 °F 12.0 °F 32% 30.01 in 10.0 mi West 5.8 mph - N/A   Partly Cloudy
5:53 PM 35.1 °F 31.0 °F 14.0 °F 42% 30.01 in 10.0 mi SSW 4.6 mph - N/A   Partly Cloudy
6:53 PM 34.0 °F 28.0 °F 12.9 °F 42% 30.04 in 10.0 mi SW 6.9 mph - N/A   Partly Cloudy
7:53 PM 32.0 °F 28.7 °F 14.0 °F 48% 30.05 in 10.0 mi South 3.5 mph - N/A   Clear
8:53 PM 28.9 °F 21.9 °F 14.0 °F 54% 30.05 in 10.0 mi SSE 6.9 mph - N/A   Clear
9:53 PM 27.0 °F 18.7 °F 12.9 °F 56% 30.03 in 10.0 mi South 8.1 mph - N/A   Clear
10:53 PM 26.1 °F 17.6 °F 10.9 °F 53% 30.04 in 10.0 mi South 8.1 mph - N/A   Clear
11:53 PM 24.1 °F 15.2 °F 12.0 °F 60% 30.03 in 10.0 mi South 8.1 mph - N/A   Clear